{"data":{"norad_id":66564,"epoch":"2026-05-24T17:56:59.556192Z","epoch_age_seconds":106884,"freshness":"FRESH","line1":"1 66564U 25268H   26144.74791153  .00009098  00000+0  33967-3 0  9990","line2":"2 66564  43.0015 277.3766 0001168 272.4987  87.5731 15.27585264 29596","mean_motion":15.27585264,"eccentricity":0.0001168,"inclination_deg":43.0015,"raan_deg":277.3766,"arg_perigee_deg":272.4987,"mean_anomaly_deg":87.5731,"bstar":0.00033967,"rev_number":2959,"period_min":94.266423874065,"perigee_km":482.23194908022,"apogee_km":483.83471847019,"semimajor_km":6861.1703337752,"source":"CELESTRAK","updated_at":"2026-05-25T13:38:21.257516Z"}}